Tracking 19846 objects as of 20-Sep-2019
HD Live streaming from Space Station
objects crossing your sky now

URSA MAIOR

Track URSA MAIOR now!
10-day predictions
URSA MAIOR is classified as:


NORAD ID: 42776
Int'l Code: 2017-036M
Perigee: 499.8 km
Apogee: 516.6 km
Inclination: 97.3 °
Period: 94.6 minutes
Semi major axis: 6879 km
RCS: Unknown
Launch date: June 23, 2017
Source: Italy (IT)
Launch site: SRIHARIKOTA (SRI)

Uplink (MHz):
Downlink (MHz): 435.950
Beacon (MHz):
Mode: 9600bps FSK
Call sign: URSAMR
Status: Active

aabbcc
Your satellite tracking list
Your tracking list is empty




NASA's NSSDC Master Catalog

Two Line Element Set (TLE):
1 42776U 17036M   19263.20822767  .00000531  00000-0  26559-4 0  9998
2 42776  97.3412 317.8880 0012203 249.5522 110.4404 15.21578149124437
Source of the keplerian elements: AMSAT